STARLINK-5774 (56029 NORAD) Tracking and Keplerian Element Data

This shows tracking and keplerian element data for the satellite.

Feedback or suggestion? Click here.




ElementValue
Catalog56029
NameSTARLINK-5774
Epoch Orbit720
Epoch Day127.25001157
Epoch Year2023
RAAN291.7067
Inclination42.9996
Eccentricity0.0001436
Argument of Perigee271.8341
Mean Anonmoly277.5831
Mean Motion15.54470981
Decay Rate-0.00886737
L11 56029U 23042AV 23127.25001157 -.00886737 00000+0 -14428-1 0 9999
L22 56029 42.9996 291.7067 0001436 271.8341 277.5831 15.54470981 7201



Live tracking and technical data element details for STARLINK-5774 (NORAD 56029). STARLINK-5774 can be tracked NOW for your location showing map with azimuth and elevation plus other details from your city location.







IsCatalogInMostPopularTable: catalog: 56029, numindb: -1

Insert: records affected: 1


GetName: 56029 STARLINK-5774

Hit Count: inserted at: Sat, 03 Jun 2023 17:12:54 GMT